Location: Staunton
(38.1490°N, 79.0720°W)
Time: 14:23:53
(UTC-04:00)

ISS - Pass Details

Date: 24 May 2017
Orbit: 402 x 408 km, 51.6° (Epoch: 29 May)

Event Time Altitude Azimuth Distance (km) Brightness Sun altitude
Rises 00:30:44 0° 292° (WNW) 2,329 0.4 -30.2°
Reaches altitude 10° 00:34:38 10° 338° (NNW) 1,468 -0.1 -30.4°
Maximum altitude 00:35:05 10° 346° (NNW) 1,455 -0.1 -30.4°
Drops below altitude 10° 00:35:33 10° 354° (N) 1,468 -0.1 -30.4°
Sets 00:39:27 0° 41° (NE) 2,328 0.5 -30.5°
